Hourly Weather Roundup
Issued by NWS Central Illinois

Home | Current Version | Previous Version | Text Only | Print | Product List | Glossary On
Versions: 1 2 3 4 5 6 7 8 9 10 11 12 13 14 15 16 17 18 19 20 21 22 23 24 25 26 27 28 29 30 31 32 33 34 35 36 37 38 39 40 41 42 43 44 45 46 47 48 49 50
000
NZUS43 KILX 021710
HWRILX

AREA WEATHER ROUNDUP
NATIONAL WEATHER SERVICE, LINCOLN IL
1200 PM CDT TUE JUN 02 2015


CITY           SKY/WX    TMP DP  RH WIND       PRES   REMARKS
BLOOMINGTON    SUNNY     67  50  54 E12       30.16F
CHAMPAIGN      SUNNY     66  50  56 E13       30.15S
DANVILLE       SUNNY     65  52  64 E8        30.12F
DECATUR        SUNNY     67  52  58 E12       30.14F
EFFINGHAM      CLOUDY    62  51  67 NE3       30.16S
FLORA          MOSUNNY   60  53  76 NE8       30.14F
GALESBURG      PTSUNNY   67  53  60 SE6       30.13F
JACKSONVILLE   PTSUNNY   69  54  59 E10G16    30.13F
LACON          SUNNY     67  47  49 E9        30.13F
LAWRENCEVILLE  CLOUDY    61  53  75 NE5       30.15S
LITCHFIELD     SUNNY     67  54  63 E7        30.13F
$$


CITY           SKY/WX    TMP DP  RH WIND       PRES   REMARKS
LINCOLN        SUNNY     68  47  47 E9        30.13F
MACOMB         CLOUDY    66  53  61 E8        30.15F
MATTOON        MOSUNNY   67  54  63 VRB7      30.13F
MT CARMEL AP   CLOUDY    61  52  72 NE7       30.14S
OLNEY-NOBLE AP CLOUDY    59  54  82 NE6       30.14F
PARIS          SUNNY     67  53  60 E12       30.14F
PEORIA         MOSUNNY   69  50  50 E8        30.14F
PONTIAC        SUNNY     67  50  54 E6        30.16F
RANTOUL        SUNNY     68  50  52 E9G16     30.15F
ROBINSON       PTSUNNY   64  54  70 CALM      30.15S
SPRINGFIELD    SUNNY     70  52  52 SE9G18    30.14F
TAYLORVILLE    MOSUNNY   64  54  68 E6        30.14S
$$

...REGIONAL REPORTS...


CITY           SKY/WX    TMP DP  RH WIND       PRES   REMARKS
CHICAGO O`HARE MOSUNNY   68  45  43 SE10      30.16F
KANKAKEE       SUNNY     66  50  57 E7        30.17F
MOLINE         MOSUNNY   69  50  50 S3        30.12F
MOUNT VERNON   CLOUDY    61  52  72 NE6       30.15R
PITTSFIELD     PTSUNNY   68  53  59 E7        30.14S
QUINCY         CLOUDY    68  52  56 SE9       30.12F
ROCKFORD       MOSUNNY   68  47  46 VRB6      30.16F
$$


CITY           SKY/WX    TMP DP  RH WIND       PRES   REMARKS
BURLINGTON     CLOUDY    67  53  61 S6        30.12F
CEDAR RAPIDS   MOSUNNY   68  54  60 SE12G18   30.11F
DES MOINES     CLOUDY    66  54  65 SE18      30.07F
KIRKSVILLE     CLOUDY    66  56  70 SE12      30.12S
OTTUMWA        PTSUNNY   67  55  65 MISG      30.08F
ST LOUIS       PTSUNNY   71  54  54 E12       30.12F
$$


CITY           SKY/WX    TMP DP  RH WIND       PRES   REMARKS
TERRE HAUTE    MOSUNNY   67  54  63 VRB6      30.13F
EVANSVILLE     CLOUDY    62  54  74 N6        30.13F
INDIANAPOLIS   MOSUNNY   65  50  58 E12       30.13F
LAFAYETTE      SUNNY     65  52  62 E8        30.15F
MADISON        MOSUNNY   65  44  46 S6        30.15F
MILWAUKEE      MOSUNNY   59  45  59 E9        30.18F
$$





USA.gov is the U.S. government's official web portal to all federal, state and local government web resources and services.